Wetterdaten Winter 2001/2002

Datum T max T min Regen
01.12.2001 12.9 °C 9.4 °C 7.3 mm
02.12.2001 11.5 °C 8.7 °C 0 mm
03.12.2001 8.5 °C 6 °C 0 mm
04.12.2001 9.3 °C 5 °C 6.5 mm
05.12.2001 10.1 °C 5.5 °C 0.7 mm
06.12.2001 12.4 °C 5.3 °C 0.7 mm
07.12.2001 4.1 °C -1.9 °C 0 mm
08.12.2001 4.5 °C -1.3 °C 0 mm
09.12.2001 3.2 °C -4.1 °C 0 mm
10.12.2001 3.7 °C -5 °C 0 mm
11.12.2001 4.2 °C 0.1 °C 0 mm
12.12.2001 5 °C 1.6 °C 0 mm
13.12.2001 3 °C -9.1 °C 0 mm
14.12.2001 -4.6 °C -10.8 °C 0 mm
15.12.2001 10.5 °C -10.5 °C 0 mm
16.12.2001 1.4 °C -3.3 °C 0 mm
17.12.2001 0.5 °C -6.1 °C 0 mm
18.12.2001 2.1 °C -3.7 °C 0 mm
19.12.2001 1.7 °C -5.7 °C 0 mm
20.12.2001 2.3 °C -4.4 °C 0.4 mm
21.12.2001 1.8 °C -9.3 °C 0 mm
22.12.2001 2 °C -1 °C 1.8 mm
23.12.2001 -0.3 °C -12 °C 0 mm
24.12.2001 0.2 °C -15 °C 0 mm
25.12.2001 4.5 °C 0.1 °C 9.4 mm
26.12.2001 1.9 °C -1.6 °C 7.9 mm
27.12.2001 2.1 °C -3.3 °C 0 mm
28.12.2001 8.6 °C 2 °C 2.9 mm
29.12.2001 6.7 °C 0.3 °C 39.6 mm
30.12.2001 1.4 °C -3.1 °C 1.8 mm
31.12.2001 0 °C -4.3 °C 0.4 mm
01.01.2002 1 °C -8.4 °C 0 mm
02.01.2002 -2.1 °C -11 °C 0 mm
03.01.2002 -1.4 °C -9.1 °C 0 mm
04.01.2002 -2.5 °C -12 °C 0 mm
05.01.2002 -4.1 °C -12 °C 0 mm
06.01.2002 -4.1 °C -14 °C 0 mm
07.01.2002 1.1 °C -4.9 °C 0 mm
08.01.2002 -0.4 °C -7.5 °C 0 mm
09.01.2002 -3.7 °C -11 °C 0 mm
10.01.2002 -4.7 °C -10 °C 0 mm
11.01.2002 -0.2 °C -11 °C 0 mm
12.01.2002 4.5 °C -1.5 °C 0.7 mm
13.01.2002 4.4 °C -3.5 °C 0 mm
14.01.2002 0.7 °C -2.8 °C 0 mm
15.01.2002 0.6 °C -6.2 °C 0 mm
16.01.2002 -1 °C -7.2 °C 0 mm
17.01.2002 3.6 °C -1.5 °C 1.1 mm
18.01.2002 5.3 °C 0.6 °C 0 mm
19.01.2002 6.3 °C -1.7 °C 0.4 mm
20.01.2002 8.4 °C 3.3 °C 1.1 mm
21.01.2002 11.6 °C 1.3 °C 0.7 mm
22.01.2002 11 °C -1.9 °C 0.4 mm
23.01.2002 9.7 °C 1.1 °C 0.7 mm
24.01.2002 12.2 °C 6.9 °C 0.4 mm
25.01.2002 9.7 °C 5.3 °C 2.5 mm
26.01.2002 13.4 °C 5.4 °C 1.1 mm
27.01.2002 13.6 °C 9.3 °C 5.4 mm
28.01.2002 14.9 °C 7.7 °C 0 mm
29.01.2002 12.7 °C 1.6 °C 0 mm
30.01.2002 15.2 °C 1.5 °C 0 mm
31.01.2002 12.1 °C 3.5 °C 0 mm
01.02.2002 13 °C 4.6 °C 0 mm
02.02.2002 17.2 °C 2.8 °C 0 mm
03.02.2002 16.1 °C 1.4 °C 0 mm
04.02.2002 13 °C 4.2 °C 0 mm
05.02.2002 17.5 °C 8.5 °C 0 mm
06.02.2002 10.5 °C 6.1 °C 3.6 mm
07.02.2002 10.4 °C 2.6 °C 0 mm
08.02.2002 9 °C 4.1 °C 2.9 mm
09.02.2002 13.8 °C 8.4 °C 5.8 mm
10.02.2002 9.5 °C 5.5 °C 4.3 mm
11.02.2002 13.2 °C 7.2 °C 2.2 mm
12.02.2002 13.3 °C 11.9 °C 0 mm
13.02.2002 12.7 °C 6.1 °C 7.2 mm
14.02.2002 8.1 °C 2.1 °C 13.7 mm
15.02.2002 7.8 °C -0.9 °C 0 mm
16.02.2002 8.3 °C -1.2 °C 0 mm
17.02.2002 8.5 °C -3 °C 0 mm
18.02.2002 8.8 °C -1.9 °C 0 mm
19.02.2002 6.6 °C 1.1 °C 0.4 mm
20.02.2002 7.8 °C 4.1 °C 5 mm
21.02.2002 5.2 °C -3.1 °C 2.5 mm
22.02.2002 6.7 °C -3.8 °C 1.4 mm
23.02.2002 8.6 °C 0.7 °C 7.9 mm
24.02.2002 6 °C 0.4 °C 2.2 mm
25.02.2002 9.6 °C 2.1 °C 15.8 mm
26.02.2002 12.7 °C 8.5 °C 0 mm
27.02.2002 11.2 °C 5 °C 6.5 mm
28.02.2002 10.1 °C 2.3 °C 0.7 mm
*) Messwert für diesen Zeitpunkt noch nicht verfügbar
 Hinweis zur Datenqualität
∅ Temperatur

2.4 °C

Abweichung vom Mittel

+0.4 °C

Niederschlag

175.8 mm

Abweichung vom Mittel

142 %

17.5 °C

Lufttemperatur
05.02.2002

1029 hPa

Luftdruck
16.12.2001

42.5 km/h

Windböen
27.01.2002

175.78 mm

Niederschlag
 

-15 °C

Lufttemperatur
24.12.2001

*) °C

Bodentemperatur 5cm
01.01.1970

982 hPa

Luftdruck
29.12.2001
*) Messwert für diesen Zeitpunkt noch nicht verfügbar
 Hinweis zur Datenqualität